DELTA 1 DEB, 19429

Orbit data source: Space-Track

DELTA 1 DEB, 19429 is space debris in LEO originally from a launch on Thu, 14 Jul 1977 UTC launched from the Air Force Eastern Test Range (AFETR). Debris objects in space refer to the collection of defunct objects orbiting the Earth. Examples of debris include non-operational satellites, rocket bodies, and fragments generated from explosions, collisions, or faulty payload assembly.

Loading next visibility...
Identifier
19429, 1977-065GB
Orbit
LEO
Country
Flag of USUS
Related business
Manufacturer
Unknown
Mission
Spacecraft
Bus & Motor
Unknown
Mass
Unknown
Launch date (UTC)
1977-07-14 (49 years ago)
Launch vehicle
Unknown
Launch site
Air Force Eastern Test Range (AFETR)
Object type
Payload
Rocket body
Debris
Shape & HBR
Unknown shape, 0.1 m
Radar Cross Section
Small (<0.1 m²)

Expand to show TLE details & history
Last TLE update: 19 hours ago

TLE from 19 hours ago
0 DELTA 1 DEB
1 19429U 77065GB  26132.64172523  .00004489  00000-0  47696-3 0  9994
2 19429  29.1055 325.8731 0363520 209.9337 147.9996 14.48728696881535
Epoch: 2026-05-12T15:24Z
TLE epoch observation values (Epoch: 2026-05-12T15:24:05.059Z)
Latitude
0.00001°
Longitude
-135.56114°
Altitude
949.753 km
Speed
7.264 km/s
True Right ascension
21h 43m 29s
True Declination
0° 00' 00"
Sunlit
Object was in daylight at epoch
Visualization orbit readout
Latitude
Unknown
Longitude
Unknown
Altitude
Unknown
Speed
Unknown
Apparent Right ascension
Unknown
Apparent Declination
Unknown
Sunlit
N/A
Visualization observer readout
Local Sidereal Time
19:11:19
Azimuth
Unknown
Elevation
Unknown
Doppler factor
Unknown
Orbital elements
Apogee altitude
992.348 km
Perigee altitude
475.281 km
Semi-major axis
7,111.952 km
Eccentricity
0.03635
Inclination
29.1055°
RAAN
325.8731°
Arg. of periapsis
209.9337°
True anomaly
150.12456°
Mean anomaly
147.9996°
Eccentric anomaly
149.07014°
Mean motion
3.61876 °/min
Orbital period
99.48 mins
BSTAR
0.00047696
Loading maneuver chart data...
Computing Atmospheric mass density...

Documentation

Showing up to 5 results
|